Weather History for Hot Springs, VA

Change the Weather History Date:

Tuesday, February 19, 2013

  Actual Average Record
Temperature  
Mean Temperature 30 °F -  
Max Temperature 37 °F 36 °F 53 °F (1997)
Min Temperature 23 °F 21 °F 1 °F (2006)
Degree Days  
Heating Degree Days 34    
Moisture  
Dew Point 25 °F    
Average Humidity 78    
Maximum Humidity 100    
Minimum Humidity 55    
Precipitation  
Precipitation 0.09 in - - ()
Sea Level Pressure  
Sea Level Pressure 29.84 in    
Wind  
Wind Speed 16 mph (SW)    
Max Wind Speed 28 mph    
Max Gust Speed 43 mph    
Visibility 8 miles    
Events Snow    
Averages and records for this station are not official NWS values.
T = Trace of Precipitation, MM = Missing Value Source: NWS Daily Summary

Daily Weather History Graph

Daily Weather History Graph

Search for Another Location

Airport:

Trip Planner

Search our weather history database for the weather conditions in past years. The results will help you decide how hot, cold, wet, or windy it might be!

Date:

Astronomy

Feb. 19, 2013 Rise Set
Actual Time 7:04 AM EST 6:02 PM EST
Civil Twilight 6:37 AM EST 6:29 PM EST
Nautical Twilight 6:06 AM EST 7:00 PM EST
Astronomical Twilight 5:36 AM EST 7:30 PM EST
Moon 12:36 PM EST (2/19) 2:31 AM EST (2/19)
Length of Visible Light 11h 52m
Length of Day
10h 58m
Waxing Gibbous, 67% of the Moon is Illuminated
Feb 19
Waxing Gibbous
Feb 25
Full
Mar 4
Last Quarter
Mar 11
New
Mar 19
First Quarter

Hourly Weather History & Observations

Time (EST) Temp. Windchill Dew Point Humidity Pressure Visibility Wind Dir Wind Speed Gust Speed Precip Events Conditions
12:37 AM 30.2 °F 19.3 °F 21.2 °F 69% 30.05 in 10.0 mi South 15.0 mph 20.7 mph N/A   Clear
12:57 AM 30.2 °F 20.8 °F 21.2 °F 69% 30.04 in 10.0 mi South 11.5 mph 25.3 mph N/A   Clear
1:35 AM 30.2 °F 21.3 °F 21.2 °F 69% 30.02 in 10.0 mi SSE 10.4 mph 19.6 mph N/A   Mostly Cloudy
1:55 AM 30.2 °F 20.2 °F 21.2 °F 69% 30.00 in 10.0 mi South 12.7 mph 18.4 mph N/A   Mostly Cloudy
2:15 AM 30.2 °F 19.8 °F 21.2 °F 69% 29.98 in 10.0 mi SSE 13.8 mph 20.7 mph N/A   Overcast
2:35 AM 30.2 °F 19.8 °F 21.2 °F 69% 29.98 in 10.0 mi South 13.8 mph 20.7 mph N/A   Overcast
3:36 AM 28.4 °F 19.7 °F 21.2 °F 74% 29.94 in 10.0 mi SE 9.2 mph - N/A   Scattered Clouds
3:55 AM 28.4 °F 24.6 °F 21.2 °F 74% 29.93 in 10.0 mi ESE 3.5 mph - N/A   Scattered Clouds
4:15 AM 28.4 °F 20.4 °F 21.2 °F 74% 29.95 in 10.0 mi SSW 8.1 mph - N/A   Mostly Cloudy
4:18 AM 28.4 °F 18.5 °F 21.2 °F 74% 29.95 in 10.0 mi SSW 11.5 mph 17.3 mph N/A   Mostly Cloudy
4:35 AM 30.2 °F 21.9 °F 21.2 °F 69% 29.93 in 10.0 mi South 9.2 mph - N/A   Overcast
5:15 AM 32.0 °F 21.6 °F 21.2 °F 64% 29.95 in 10.0 mi SW 15.0 mph 24.2 mph N/A   Mostly Cloudy
5:35 AM 33.8 °F 22.8 °F 21.2 °F 60% 29.94 in 10.0 mi SW 18.4 mph 29.9 mph N/A   Overcast
5:55 AM 30.2 °F 20.2 °F 26.6 °F 86% 29.92 in 1.5 mi SSW 12.7 mph 26.5 mph N/A Snow Light Snow
6:15 AM 28.4 °F 16.6 °F 26.6 °F 93% 29.92 in 1.8 mi SSW 16.1 mph 25.3 mph N/A Snow Light Snow
6:35 AM 28.4 °F 16.2 °F 28.4 °F 100% 29.91 in 2.5 mi SW 17.3 mph 25.3 mph 0.02 in Snow Light Snow
6:55 AM 28.4 °F 17.5 °F 28.4 °F 100% 29.90 in 2.0 mi SSW 13.8 mph 23.0 mph N/A Snow Light Snow
7:15 AM 28.4 °F 15.1 °F 28.4 °F 100% 29.90 in 1.2 mi SSW 20.7 mph 28.8 mph 0.01 in Snow Light Snow
7:35 AM 28.4 °F 18.5 °F 28.4 °F 100% 29.90 in 0.5 mi SSW 11.5 mph 20.7 mph 0.01 in Snow Light Snow
7:55 AM 28.4 °F 14.7 °F 28.4 °F 100% 29.89 in 1.5 mi SSW 21.9 mph 29.9 mph N/A Snow Light Snow
8:15 AM 30.2 °F 17.1 °F 30.2 °F 100% 29.88 in 2.0 mi SSW 21.9 mph 29.9 mph N/A Snow Light Snow
8:35 AM 30.2 °F 17.4 °F 30.2 °F 100% 29.87 in 0.2 mi South 20.7 mph 33.4 mph N/A Snow Light Snow
8:55 AM 30.2 °F 18.5 °F 30.2 °F 100% 29.85 in 0.2 mi SSW 17.3 mph 29.9 mph N/A Snow Light Snow
9:15 AM 30.2 °F 18.5 °F 30.2 °F 100% 29.86 in 0.2 mi SSW 17.3 mph 24.2 mph N/A   Overcast
9:35 AM 32.0 °F 21.2 °F 32.0 °F 100% 29.85 in 10.0 mi SSW 16.1 mph 28.8 mph 0.01 in   Overcast
9:55 AM 33.8 °F 22.8 °F 33.8 °F 100% 29.84 in 3.0 mi SSW 18.4 mph 25.3 mph N/A Snow Light Snow
10:15 AM 33.8 °F 23.2 °F 32.0 °F 93% 29.83 in 10.0 mi SSW 17.3 mph 24.2 mph N/A Snow Light Snow
10:35 AM 33.8 °F 23.5 °F 33.8 °F 100% 29.83 in 10.0 mi SSW 16.1 mph 24.2 mph N/A   Overcast
10:55 AM 33.8 °F 24.3 °F 33.8 °F 100% 29.82 in 10.0 mi SW 13.8 mph 23.0 mph 0.01 in   Overcast
11:15 AM 33.8 °F 24.8 °F 33.8 °F 100% 29.82 in 10.0 mi SW 12.7 mph 24.2 mph 0.01 in   Overcast
11:35 AM 35.6 °F 25.5 °F 33.8 °F 93% 29.81 in 10.0 mi SW 17.3 mph 24.2 mph 0.02 in   Overcast
11:55 AM 35.6 °F 27.1 °F 33.8 °F 93% 29.80 in 10.0 mi SW 12.7 mph 23.0 mph 0.01 in   Overcast
12:15 PM 35.6 °F 27.1 °F 33.8 °F 93% 29.79 in 10.0 mi WSW 12.7 mph 21.9 mph 0.01 in   Overcast
12:35 PM 35.6 °F 24.8 °F 33.8 °F 93% 29.78 in 10.0 mi WSW 19.6 mph - 0.02 in   Overcast
12:55 PM 35.6 °F 24.2 °F 33.8 °F 93% 29.76 in 10.0 mi WSW 21.9 mph 27.6 mph N/A   Overcast
1:15 PM 35.6 °F 23.7 °F 35.6 °F 100% 29.75 in 10.0 mi WSW 24.2 mph 29.9 mph N/A   Overcast
1:35 PM 35.6 °F 25.5 °F 35.6 °F 100% 29.74 in 10.0 mi WSW 17.3 mph - N/A   Overcast
1:55 PM 37.4 °F 27.5 °F 33.8 °F 87% 29.72 in 10.0 mi WSW 18.4 mph 31.1 mph N/A   Overcast
2:15 PM 35.6 °F 26.6 °F 33.8 °F 93% 29.72 in 7.0 mi West 13.8 mph 20.7 mph N/A   Overcast
2:35 PM 33.8 °F 21.6 °F 33.8 °F 100% 29.72 in 0.8 mi West 23.0 mph 35.7 mph N/A   Overcast
2:55 PM 35.6 °F 23.4 °F 30.2 °F 81% 29.71 in 10.0 mi West 25.3 mph 34.5 mph N/A   Mostly Cloudy
3:15 PM 35.6 °F 24.5 °F 30.2 °F 81% 29.72 in 10.0 mi West 20.7 mph 35.7 mph N/A   Overcast
3:35 PM 35.6 °F 24.0 °F 30.2 °F 81% 29.71 in 10.0 mi West 23.0 mph 36.8 mph N/A   Overcast
3:55 PM 35.6 °F 23.0 °F 28.4 °F 75% 29.73 in 10.0 mi West 27.6 mph 32.2 mph N/A   Mostly Cloudy
4:15 PM 35.6 °F 23.7 °F 26.6 °F 70% 29.72 in 10.0 mi West 24.2 mph 31.1 mph N/A   Overcast
4:35 PM 35.6 °F 23.0 °F 24.8 °F 65% 29.73 in 10.0 mi West 27.6 mph 35.7 mph N/A   Scattered Clouds
4:55 PM 35.6 °F 24.2 °F 23.0 °F 60% 29.73 in 10.0 mi West 21.9 mph 32.2 mph N/A   Scattered Clouds
5:15 PM 35.6 °F 24.5 °F 21.2 °F 56% 29.74 in 10.0 mi West 20.7 mph 31.1 mph N/A   Scattered Clouds
5:35 PM 33.8 °F 22.5 °F 21.2 °F 60% 29.75 in 10.0 mi West 19.6 mph 36.8 mph N/A   Mostly Cloudy
5:55 PM 33.8 °F 23.2 °F 19.4 °F 56% 29.76 in 10.0 mi West 17.3 mph 26.5 mph N/A   Mostly Cloudy
6:15 PM 33.8 °F 22.2 °F 19.4 °F 56% 29.77 in 10.0 mi West 20.7 mph 31.1 mph N/A   Mostly Cloudy
7:35 PM 30.2 °F 18.5 °F 17.6 °F 60% 29.80 in 10.0 mi West 17.3 mph 28.8 mph N/A   Scattered Clouds
7:55 PM 30.2 °F 16.5 °F 17.6 °F 60% 29.79 in 10.0 mi West 24.2 mph 34.5 mph N/A   Mostly Cloudy
8:15 PM 28.4 °F 13.5 °F 15.8 °F 59% 29.79 in 10.0 mi West 26.5 mph 36.8 mph N/A   Scattered Clouds
8:35 PM 28.4 °F 15.1 °F 15.8 °F 59% 29.81 in 10.0 mi West 20.7 mph 40.3 mph N/A   Scattered Clouds
8:55 PM 28.4 °F 14.1 °F 14.0 °F 55% 29.81 in 10.0 mi West 24.2 mph 33.4 mph N/A   Scattered Clouds
9:15 PM 26.6 °F 11.1 °F 12.2 °F 55% 29.82 in 10.0 mi West 26.5 mph 35.7 mph N/A   Scattered Clouds
9:35 PM 26.6 °F 11.1 °F 12.2 °F 55% 29.82 in 10.0 mi West 26.5 mph 36.8 mph N/A   Mostly Cloudy
9:55 PM 26.6 °F 11.7 °F 12.2 °F 55% 29.83 in 10.0 mi West 24.2 mph 38.0 mph N/A   Mostly Cloudy
10:15 PM 26.6 °F 13.4 °F 12.2 °F 55% 29.83 in 10.0 mi West 18.4 mph 25.3 mph N/A   Overcast
10:35 PM 24.8 °F 10.3 °F 12.2 °F 59% 29.83 in 10.0 mi West 20.7 mph 33.4 mph N/A   Mostly Cloudy
10:55 PM 24.8 °F 9.6 °F 12.2 °F 59% 29.82 in 10.0 mi West 23.0 mph 42.6 mph N/A   Overcast
11:15 PM 24.8 °F 10.7 °F 12.2 °F 59% 29.82 in 10.0 mi West 19.6 mph 33.4 mph N/A   Overcast
11:35 PM 24.8 °F 8.7 °F 12.2 °F 59% 29.81 in 10.0 mi West 26.5 mph 38.0 mph N/A   Mostly Cloudy
11:55 PM 23.0 °F 6.9 °F 12.2 °F 63% 29.81 in 10.0 mi West 24.2 mph 34.5 mph N/A   Mostly Cloudy